1275868833158,84.7929
1275868893158,84.3245
1275868953158,84.8951
1275869013158,84.7707
1275869073158,84.1605
1275869133158,84.9150
1275869193158,84.5459
1275869253158,84.7599
1275869313158,84.5301
1275869373158,84.2941
1275869433158,84.7849
1275869493158,84.4726
1275869553158,84.4822
1275869613158,84.4528
1275869673158,84.4681
1275869733158,84.8220
1275869793158,84.5026
1275869853158,84.3098
1275869913158,84.1754
1275869973158,84.4729
1275870033158,84.3291
1275870093158,84.1593
1275870153158,84.7969
1275870213158,84.4414
1275870273158,84.2843
1275870333158,84.2181
1275870393158,84.4108
1275870453158,84.4561
1275870513158,84.1698
1275870573158,84.5285
1275870633158,84.3229
1275870693158,84.5735
1275870753158,84.3947
1275870813158,84.0747
1275870873158,83.8038
1275870933158,84.3817
1275870993158,84.2005
1275871053158,84.4672
1275871113158,84.0271
1275871173158,84.2076
1275871233158,84.0886
1275871293158,83.7511
1275871353158,83.8049
1275871413158,84.1449
1275871473158,84.6266
1275871533158,84.1318
1275871593158,84.1022
1275871653158,84.2409
1275871713158,83.9181
1275871773158,84.1297
1275871833158,84.0397
1275871893158,83.9368
1275871953158,83.7945
1275872013158,84.4481
1275872073158,84.3122
1275872133158,84.1905
1275872193158,84.1900
1275872253158,83.8875
1275872313158,83.7784
1275872373158,83.9332
1275872433168,83.5987
1275872493168,84.0150
1275872553168,84.2704
1275872613168,83.8592
1275872673168,83.7077
1275872733168,84.2184
1275872793168,83.7595
1275872853168,84.1590
1275872913168,83.7062
1275872973168,83.8726
1275873033168,83.7264
1275873093168,83.7200
1275873153168,83.8613
1275873213168,83.4483
1275873273168,83.7736
1275873333168,83.9278
1275873393168,83.8004
1275873453168,83.5531
1275873513168,83.8035
1275873573168,83.3357
1275873633168,83.9052
1275873693168,83.5121
1275873753168,83.4849
1275873813168,83.5869
1275873873168,83.9510
1275873933168,83.4734
1275873993168,83.6842
1275874053168,83.4974
1275874113168,83.4250
1275874173168,83.4777
1275874233168,83.7062
1275874293168,83.5795
1275874353168,83.2113
1275874413168,83.5452
1275874473168,83.4220
1275874533168,83.8480
1275874593168,83.4266
1275874653168,83.8242
1275874713168,83.4519
1275874773168,84.0564
1275874833168,83.5994
1275874893168,83.6424
1275874953168,83.1675
1275875013168,83.2107
1275875073168,83.4722
1275875133168,83.5572
1275875193168,83.3093
1275875253168,83.4309
1275875313168,83.9033
1275875373168,83.7166
1275875433168,83.3842
1275875493168,82.8611
1275875553168,83.1248
1275875613168,83.2784
1275875673168,83.2532
1275875733168,83.5628
1275875793168,83.5735
1275875853168,83.8413
1275875913168,83.4620
1275875973168,83.2850
1275876033177,83.7848
1275876093177,83.5087
1275876153177,83.4167
1275876213177,83.1971
1275876273177,83.7550
1275876333177,83.4284
1275876393177,83.2169
1275876453177,83.5573
1275876513177,83.3373
1275876573177,83.2290
1275876633177,83.5173
1275876693177,83.2856
1275876753177,83.2546
1275876813177,83.2422
1275876873177,83.0537
1275876933177,83.2190
1275876993177,83.5859
1275877053177,83.1411
1275877113177,82.8944
1275877173177,82.7632
1275877233177,83.2951
1275877293177,83.4542
1275877353177,83.5843
1275877413177,83.4144
1275877473177,83.2912
1275877533177,83.2383
1275877593177,83.4723
1275877653177,83.4802
1275877713177,82.8111
1275877773177,82.8404
1275877833177,83.0561
1275877893177,83.0813
1275877953177,83.3778
1275878013177,83.4324
1275878073177,83.8251
1275878133177,83.4489
1275878193177,83.4027
1275878253177,83.3122
1275878313177,83.4896
1275878373177,83.0516
1275878433177,82.8877
1275878493177,83.1944
1275878553177,83.1360
1275878613177,83.4941
1275878673177,83.3813
1275878733177,83.7663
1275878793177,83.4960
1275878853177,82.9592
1275878913177,82.9163
1275878973177,83.3213
1275879033177,83.2933
1275879093177,83.1219
1275879153177,83.2491
1275879213177,82.9717
1275879273177,83.0433
1275879333177,83.2458
1275879393177,83.1556
1275879453177,83.2911
1275879513177,82.9020
1275879573177,82.8648
1275879633186,83.4008
1275879693186,83.3852
1275879753186,83.0234
1275879813186,83.1316
1275879873186,83.0380
1275879933186,83.4531
1275879993186,83.3949
1275880053186,82.9096
1275880113186,83.3893
1275880173186,83.5936
1275880233186,83.4277
1275880293186,83.3538
1275880353186,83.2170
1275880413186,83.2172
1275880473186,83.2948
1275880533186,83.5124
1275880593186,83.6748
1275880653186,83.6104
1275880713186,83.5437
1275880773186,83.0688
1275880833186,83.7353
1275880893186,83.4686
1275880953186,83.6140
1275881013186,83.6610
1275881073186,83.7481
1275881133186,83.1482
1275881193186,83.2745
1275881253186,83.8842
1275881313186,83.7608
1275881373186,83.2113
1275881433186,83.6266
1275881493186,83.4347
1275881553186,83.9035
1275881613186,83.4513
1275881673186,83.5128
1275881733186,83.8964
1275881793186,83.9294
1275881853186,83.4148
1275881913186,83.4841
1275881973186,83.5762
1275882033186,83.7844
1275882093186,83.8677
1275882153186,83.9135
1275882213186,83.8397
1275882273186,83.8384
1275882333186,84.0150
1275882393186,83.6949
1275882453186,84.0113
1275882513186,83.8399
1275882573186,84.1695
1275882633186,83.9025
1275882693186,83.7281
1275882753186,83.8351
1275882813186,83.8136
1275882873186,84.4410
1275882933186,84.0195
1275882993186,84.0738
1275883053186,84.0970
1275883113186,84.1400
1275883173186,84.1148
1275883233195,84.3872
1275883293195,83.8748
1275883353195,84.0005
1275883413195,83.8918
1275883473195,84.5522
1275883533195,84.2150
1275883593195,84.0228
1275883653195,83.6079
1275883713195,84.6267
1275883773195,84.0338
1275883833195,84.1574
1275883893195,84.1716
1275883953195,84.4260
1275884013195,84.1024
1275884073195,84.0072
1275884133195,84.0162
1275884193195,83.9886
1275884253195,83.7404
1275884313195,84.1435
1275884373195,83.7325
1275884433195,84.4744
1275884493195,84.4790
1275884553195,84.1927
1275884613195,84.0075
1275884673195,84.1839
1275884733195,83.8828
1275884793195,84.1447
1275884853195,84.4445
1275884913195,83.8152
1275884973195,84.3885
1275885033195,84.5178
1275885093195,83.8961
1275885153195,84.2009
1275885213195,84.1517
1275885273195,84.4372
1275885333195,84.5341
1275885393195,84.2886
1275885453195,83.9915
1275885513195,84.1364
1275885573195,84.2776
1275885633195,84.2898
1275885693195,84.2982
1275885753195,84.2015
1275885813195,84.4059
1275885873195,83.6802
1275885933195,83.9705
1275885993195,84.0544
1275886053195,84.3389
1275886113195,84.5131
1275886173195,83.6391
1275886233195,84.1386
1275886293195,83.9957
1275886353195,84.4308
1275886413195,84.6164
1275886473195,84.3507
1275886533195,84.4584
1275886593195,84.3236
1275886653195,84.5082
1275886713195,84.3888
1275886773195,84.2010
1275886833204,84.1444
1275886893204,84.8071
1275886953204,84.4750
1275887013204,84.3596
1275887073204,84.3110
1275887133204,84.4239
1275887193204,84.0322
1275887253204,84.2684
1275887313204,84.4237
1275887373204,84.9247
1275887433204,84.7176
1275887493204,84.5317
1275887553204,83.9379
1275887613204,84.2415
1275887673204,84.0278
1275887733204,84.0368
1275887793204,84.8172
1275887853204,84.7547
1275887913204,84.6841
1275887973204,84.3869
1275888033204,84.7332
1275888093204,84.7048
1275888153204,84.4149
1275888213204,83.8779
1275888273204,84.5950
1275888333204,84.6631
1275888393204,84.7496
1275888453204,84.4165
1275888513204,84.2537
1275888573204,84.5063
1275888633204,84.3287
1275888693204,84.4660
1275888753204,84.7687
1275888813204,84.6716
1275888873204,84.4193
1275888933204,84.8149
1275888993204,84.6818
1275889053204,84.9879
1275889113204,84.4974
1275889173204,85.2093
1275889233204,85.2255
1275889293204,83.9719
1275889353204,84.0851
1275889413204,84.6018
1275889473204,85.6108
1275889533204,84.5079
1275889593204,84.7208
1275889653204,85.0179
1275889713204,84.9960
1275889773204,84.8406
1275889833204,85.1862
1275889893204,84.6076
1275889953204,84.9944
1275890013204,85.2861
1275890073204,84.5002
1275890133204,84.8466
1275890193204,85.2390
1275890253204,86.3228
1275890313204,84.8356
1275890373204,85.1398
1275890433212,84.9818
1275890493212,85.2262
1275890553212,85.0082
1275890613212,85.2103
1275890673212,85.5134
1275890733212,85.5059
1275890793212,85.1008
1275890853212,85.3611
1275890913212,85.3667
1275890973212,85.4614
1275891033212,85.3784
1275891093212,85.6045
1275891153212,85.4412
1275891213212,85.5574
1275891273212,85.3990
1275891333212,85.5558
1275891393212,85.4777
1275891453212,85.8957
1275891513212,85.2977
1275891573212,85.3806
1275891633212,85.3162
1275891693212,85.7587
1275891753212,85.8307
1275891813212,86.1535
1275891873212,85.8049
1275891933212,85.4115
1275891993212,85.8228
1275892053212,85.8393
1275892113212,85.8427
1275892173212,85.9212
1275892233212,85.9612
1275892293212,85.6258
1275892353212,86.0912
1275892413212,86.2012
1275892473212,85.5510
1275892533212,85.9224
1275892593212,86.0051
1275892653212,85.9025
1275892713212,86.2307
1275892773212,85.8919
1275892833212,86.0015
1275892893212,85.9264
1275892953212,86.1888
1275893013212,86.2438
1275893073212,85.8028
1275893133212,86.0188
1275893193212,85.6338
1275893253212,85.8414
1275893313212,85.9242
1275893373212,85.6313
1275893433212,86.2651
1275893493212,86.2830
1275893553212,86.0110
1275893613212,86.1096
1275893673212,85.8531
1275893733212,85.9193
1275893793212,85.8942
1275893853212,86.1478
1275893913212,85.8218
1275893973212,85.6812
1275894033220,86.1156
1275894093220,86.2485
1275894153220,85.9508
1275894213220,86.1061
1275894273220,86.2677
1275894333220,86.0843
1275894393220,85.8324
1275894453220,85.9055
1275894513220,86.6279
1275894573220,85.5183
1275894633220,85.9945
1275894693220,86.2281
1275894753220,85.8041
1275894813220,85.7491
1275894873220,86.0370
1275894933220,85.9345
1275894993220,85.8583
1275895053220,85.3718
1275895113220,85.4791
1275895173220,85.8983
1275895233220,86.0071
1275895293220,85.9031
1275895353220,86.0765
1275895413220,85.8351
1275895473220,85.9504
1275895533220,86.2446
1275895593220,85.9078
1275895653220,85.9077
1275895713220,86.1646
1275895773220,85.7486
1275895833220,86.0565
1275895893220,85.8520
1275895953220,85.9897
1275896013220,85.9202
1275896073220,85.9922
1275896133220,86.3475
1275896193220,85.7929
1275896253220,85.8961
1275896313220,85.6137
1275896373220,85.6062
1275896433220,85.5928
1275896493220,85.6202
1275896553220,85.3183
1275896613220,85.8113
1275896673220,86.0081
1275896733220,85.9755
1275896793220,85.7427
1275896853220,86.0777
1275896913220,86.0868
1275896973220,85.9578
1275897033220,85.8181
1275897093220,85.8680
1275897153220,85.6462
1275897213220,86.2621
1275897273220,85.8946
1275897333220,85.6972
1275897393220,85.8200
1275897453220,85.9324
1275897513220,85.7499
1275897573220,85.9709
1275897633229,85.5869
1275897693229,85.8851
1275897753229,86.0107
1275897813229,85.5768
1275897873229,85.3611
1275897933229,85.9303
1275897993229,85.9801
1275898053229,85.6181
1275898113229,86.0743
1275898173229,85.7268
1275898233229,85.7306
1275898293229,85.5825
1275898353229,85.6715
1275898413229,85.7359
1275898473229,86.1814
1275898533229,85.0018
1275898593229,85.3322
1275898653229,84.9829
1275898713229,85.4889
1275898773229,85.7588
1275898833229,85.6228
1275898893229,85.6192
1275898953229,85.8077
1275899013229,85.8075
1275899073229,85.3902
1275899133229,85.6899
1275899193229,85.7428
1275899253229,85.7799
1275899313229,85.4161
1275899373229,85.5650
1275899433229,85.4000
1275899493229,85.4144
1275899553229,85.5767
1275899613229,85.8606
1275899673229,85.5377
1275899733229,85.3352
1275899793229,86.3517
1275899853229,85.9205
1275899913229,85.8215
1275899973229,84.9392
1275900033229,85.1527
1275900093229,85.7504
1275900153229,85.2304
1275900213229,85.1376
1275900273229,85.3901
1275900333229,85.5504
1275900393229,85.6032
1275900453229,85.4872
1275900513229,85.7477
1275900573229,85.4725
1275900633229,85.2374
1275900693229,85.1944
1275900753229,85.3932
1275900813229,85.1103
1275900873229,85.4681
1275900933229,85.5198
1275900993229,85.0398
1275901053229,85.5674
1275901113229,85.4489
1275901173229,85.0105
1275901233237,85.7031
1275901293237,85.8045
1275901353237,85.2323
1275901413237,84.9152
1275901473237,85.3440
1275901533237,85.3025
1275901593237,85.2878
1275901653237,85.2404
1275901713237,85.2365
1275901773237,85.3542
1275901833237,85.2400
1275901893237,85.3054
1275901953237,85.2528
1275902013237,85.3300
1275902073237,85.0862
1275902133237,85.0522
1275902193237,84.9581
1275902253237,84.4788
1275902313237,85.1272
1275902373237,84.6933
1275902433237,85.3284
1275902493237,85.0558
1275902553237,84.6985
1275902613237,85.6000
1275902673237,85.1787
1275902733237,85.1782
1275902793237,85.0687
1275902853237,85.1402
1275902913237,84.4950
1275902973237,85.1913
1275903033237,84.9700
1275903093237,85.2451
1275903153237,85.0476
1275903213237,84.8609
1275903273237,84.8855
1275903333237,85.6078
1275903393237,84.7239
1275903453237,85.1870
1275903513237,84.8631
1275903573237,84.7647
1275903633237,85.0100
1275903693237,85.1341
1275903753237,84.8405
1275903813237,84.6271
1275903873237,85.0398
1275903933237,85.0551
1275903993237,84.9508
1275904053237,84.9137
1275904113237,85.1003
1275904173237,85.1538
1275904233237,84.6276
1275904293237,84.8823
1275904353237,84.9263
1275904413237,84.7484
1275904473237,84.8109
1275904533237,84.7778
1275904593237,84.4234
1275904653237,84.9163
1275904713237,84.3243
1275904773237,84.6731
1275904833245,84.9765
1275904893245,84.3508
1275904953245,85.1806
1275905013245,85.0843
1275905073245,84.6978
1275905133245,84.6803
1275905193245,85.1878
1275905253245,84.1039
1275905313245,84.8473
1275905373245,84.8315
1275905433245,84.4691
1275905493245,84.7493
1275905553245,84.5777
1275905613245,83.8099
1275905673245,84.7077
1275905733245,84.2510
1275905793245,84.4848
1275905853245,84.4685
1275905913245,84.6384
1275905973245,84.5777
1275906033245,84.5832
1275906093245,84.5175
1275906153245,84.8673
1275906213245,84.8882
1275906273245,84.7335
1275906333245,84.6674
1275906393245,84.6240
1275906453245,84.6663
1275906513245,84.5937
1275906573245,84.2462
1275906633245,84.8040
1275906693245,85.0619
1275906753245,84.9683
1275906813245,84.2707
1275906873245,84.6757
1275906933245,84.3820
1275906993245,85.0078
1275907053245,85.4029
1275907113245,83.8725
1275907173245,84.6935
1275907233245,83.9316
1275907293245,84.4920
1275907353245,84.5220
1275907413245,85.0808
1275907473245,84.8392
1275907533245,84.5046
1275907593245,84.2384
1275907653245,84.3697
1275907713245,84.5743
1275907773245,84.0493
1275907833245,84.9868
1275907893245,84.2700
1275907953245,84.2876
1275908013245,84.2139
1275908073245,84.3334
1275908133245,84.5069
1275908193245,84.6222
1275908253245,84.4817
1275908313245,84.6106
1275908373245,84.2874
1275908433253,84.1633
1275908493253,84.3357
1275908553253,84.7793
1275908613253,84.2771
1275908673253,84.6349
1275908733253,84.5558
1275908793253,84.4365
1275908853253,85.0436
1275908913253,84.5328
1275908973253,84.4030
1275909033253,84.5074
1275909093253,84.7378
1275909153253,84.2090
1275909213253,84.9011
1275909273253,84.3544
1275909333253,84.5083
1275909393253,84.6223
1275909453253,84.4879
1275909513253,84.8432
1275909573253,84.3191
1275909633253,85.0460
1275909693253,84.4291
1275909753253,84.6825
1275909813253,84.3116
1275909873253,84.4341
1275909933253,84.5399
1275909993253,84.2460
1275910053253,84.5263
1275910113253,84.4318
1275910173253,84.2389
1275910233253,84.3955
1275910293253,84.0529
1275910353253,84.9509
1275910413253,84.6434
1275910473253,84.4160
1275910533253,84.4061
1275910593253,84.1230
1275910653253,84.3564
1275910713253,84.7138
1275910773253,84.8663
1275910833253,84.6249
1275910893253,84.6188
1275910953253,84.4473
1275911013253,84.7703
1275911073253,84.5815
1275911133253,84.3864
1275911193253,84.7598
1275911253253,84.0923
1275911313253,84.4374
1275911373253,84.4066
1275911433253,84.1114
1275911493253,84.5333
1275911553253,84.4396
1275911613253,84.2160
1275911673253,84.3782
1275911733253,84.3680
1275911793253,84.7967
1275911853253,83.9242
1275911913253,84.4202
1275911973253,84.6147
1275912033261,84.7839
1275912093261,84.6197
1275912153261,84.3882
1275912213261,84.3086
1275912273261,84.3158
1275912333261,84.6099
1275912393261,84.2762
1275912453261,84.2104
1275912513261,84.0817
1275912573261,84.2403
1275912633261,84.3366
1275912693261,83.8957
1275912753261,84.2472
1275912813261,84.4290
1275912873261,84.6747
1275912933261,84.0424
1275912993261,84.3186
1275913053261,84.1591
1275913113261,83.9075
1275913173261,84.3703
1275913233261,84.6316
1275913293261,83.9347
1275913353261,84.2951
1275913413261,83.9575
1275913473261,84.3487
1275913533261,84.2234
1275913593261,84.1450
1275913653261,83.7787
1275913713261,84.7034
1275913773261,84.7058
1275913833261,84.2110
1275913893261,84.2590
1275913953261,84.2338
1275914013261,84.2772
1275914073261,84.1349
1275914133261,84.2853
1275914193261,83.8638
1275914253261,83.8179
1275914313261,83.3649
1275914373261,83.8320
1275914433261,83.7907
1275914493261,84.5446
1275914553261,83.7245
1275914613261,84.0188
1275914673261,84.3820
1275914733261,84.1196
1275914793261,84.0269
1275914853261,83.8961
1275914913261,84.2905
1275914973261,83.9394
1275915033261,84.1022
1275915093261,83.8545
1275915153261,83.8562
1275915213261,83.6911
1275915273261,83.4805
1275915333261,84.0750
1275915393261,83.7951
1275915453261,83.6385
1275915513261,84.0159
1275915573261,84.0981
1275915633269,83.8531
1275916233269,84.3331
1275916293269,83.2383
1275916353269,84.0063
1275916413269,83.6142
1275916473269,83.7600
1275916533269,83.7693
1275916593269,83.9032
1275916653269,84.1163
1275916713269,83.7227
1275916773269,83.7639
1275916833269,83.8075
1275916893269,83.7696
1275916953269,83.8863
1275917013269,83.7781
1275917073269,83.9656
1275917133269,83.9726
1275917193269,83.8511
1275917253269,83.7622
1275917313269,83.7574
1275917373269,84.0740
1275917433269,83.7349
1275917493269,83.8066
1275917553269,83.7830
1275917613269,83.4694
1275917673269,83.7028
1275917733269,83.6809
1275917793269,84.4889
1275917853269,83.7823
1275917913269,83.8417
1275917973269,83.5301
1275918033269,84.0045
1275918093269,83.9336
1275918153269,83.7463
1275918213269,84.3179
1275918273269,83.6991
1275918333269,83.6639
1275918393269,84.3161
1275918453269,84.1885
1275918513269,83.6064
1275918573269,83.9762
1275918633269,84.1712
1275918693269,83.8539
1275918753269,83.8557
1275918813269,83.8286
1275918873269,83.7173
1275918933269,84.2076
1275918993269,83.4912
1275919053269,84.0361
1275919113269,84.4101
1275919173269,83.5634
1275919233278,83.9574
1275919293278,84.2510
1275919353278,84.2163
1275919413278,83.9797
1275919473278,83.5866
1275919533278,84.1619
1275919593278,83.6784
1275919653278,83.8866
1275919713278,83.8406
1275919773278,83.7696
1275919833278,83.9717
1275919893278,83.8261
1275919953278,84.0757
1275920013278,83.7412
1275920073278,83.3907
1275920133278,84.2465
1275920193278,84.0258
1275920253278,83.9311
1275920313278,83.8964
1275920373278,83.6469
1275920433278,83.7449
1275920493278,83.4766
1275920553278,83.7629
1275920613278,84.0386
1275920673278,83.5525
1275920733278,84.1156
1275920793278,83.8870
1275920853278,83.7568
1275920913278,83.9892
1275920973278,83.9780
1275921033278,83.7701
1275921093278,83.8885
1275921153278,83.9353
1275921213278,84.1087
1275921273278,84.0542
1275921333278,83.8426
1275921393278,84.2118
1275921453278,84.1886
1275921513278,83.5488
1275921573278,83.6194
1275921633278,84.1229
1275921693278,84.0975
1275921753278,83.7107
1275921813278,83.9094
1275921873278,83.9220
1275921933278,83.9966
1275921993278,83.7691
1275922053278,84.1595
1275922113278,83.9893
1275922173278,83.8755
1275922233278,84.1060
1275922293278,84.3013
1275922353278,83.7978
1275922413278,83.9717
1275922473278,84.4212
1275922533278,83.6702
1275922593278,84.2541
1275922653278,83.9239
1275922713278,83.7183
1275922773278,84.0924
1275922833286,84.2910
1275922893286,83.5923
1275922953286,83.8838
1275923013286,83.9507
1275923073286,83.8776
1275923133286,83.8080
1275923193286,83.7745
1275923253286,83.6861
1275923313286,83.7671
1275923373286,83.8942
1275923433286,84.2888
1275923493286,83.8313
1275923553286,83.7718
1275923613286,84.2813
1275923673286,84.1512
1275923733286,83.8634
1275923793286,83.9050
1275923853286,84.1155
1275923913286,83.9737
1275923973286,84.1299
1275924033286,83.4553
1275924093286,83.8735
1275924153286,84.0967
1275924213286,83.9529
1275924273286,84.2068
1275924333286,83.5976
1275924393286,84.1551
1275924453286,84.1249
1275924513286,83.5718
1275924573286,83.5280
1275924633286,83.7868
1275924693286,84.2775
1275924753286,83.9528
1275924813286,83.8701
1275924873286,84.2119
1275924933286,84.0977
1275924993286,83.8793
1275925053286,83.8071
1275925113286,83.7660
1275925173286,83.7220
1275925233286,83.9621
1275925293286,83.8216
1275925353286,84.1493
1275925413286,84.0074
1275925473286,83.7960
1275925533286,83.8469
1275925593286,83.4690
1275925653286,83.8568
1275925713286,83.7839
1275925773286,83.7778
1275925833286,83.7055
1275925893286,83.8930
1275925953286,83.9448
1275926013286,84.0374
1275926073286,83.8674
1275926133286,83.9622
1275926193286,83.6737
1275926253286,83.7873
1275926313286,83.8530
1275926373286,83.9160
1275926433294,83.5147
1275926493294,84.1944
1275926553294,83.3155
1275926613294,83.6956
1275926673294,83.7458
1275926733294,83.6665
1275926793294,83.8883
1275926853294,83.2242
1275926913294,83.9007
1275926973294,83.9509
1275927033294,84.2592
1275927093294,83.6423
1275927153294,84.1146
1275927213294,84.0628
1275927273294,83.5525
1275927333294,83.5411
1275927393294,83.5245
1275927453294,83.3066
1275927513294,84.0342
1275927573294,83.9095
1275927633294,83.5873
1275927693294,83.5880
1275927753294,83.7340
1275927813294,83.9237
1275927873294,83.4648
1275927933294,83.3351
1275927993294,83.8043
1275928053294,84.0066
1275928113294,83.3339
1275928173294,83.6760
1275928233294,83.2296
1275928293294,83.8195
1275928353294,83.3540
1275928413294,83.8899
1275928473294,82.9650
1275928533294,83.6816
1275928593294,83.9655
1275928653294,83.4760
1275928713294,83.3146
1275928773294,83.8531
1275928833294,83.7285
1275928893294,83.4562
1275928953294,83.4318
1275929013294,83.3191
1275929073294,83.2869
1275929133294,83.4361
1275929193294,84.4514
1275929253294,83.4982
1275929313294,83.3004
1275929373294,83.0782
1275929433294,83.5361
1275929493294,83.4269
1275929553294,83.1654
1275929613294,83.5462
1275929673294,83.2474
1275929733294,83.6303
1275929793294,83.2593
1275929853294,83.2322
1275929913294,83.0630
1275929973294,83.0987
1275930033303,83.5836
1275930093303,83.6300
1275930153303,83.0211
1275930213303,83.1765
1275930273303,83.5438
1275930333303,83.7193
1275930393303,83.6854
1275930453303,83.9777
1275930513303,83.4113
1275930573303,83.2891
1275930633303,83.6479
1275930693303,83.4581
1275930753303,83.5317
1275930813303,83.5143
1275930873303,83.2487
1275930933303,83.3865
1275930993303,83.0315
1275931053303,83.5745
1275931113303,83.6855
1275931173303,83.5604
1275931233303,84.0044
1275931293303,83.5463
1275931353303,83.1880
1275931413303,83.6826
1275931473303,83.5006
1275931533303,83.7067
1275931593303,83.9466
1275931653303,83.5597
1275931713303,83.5057
1275931773303,83.4627
1275931833303,83.6959
1275931893303,83.5569
1275931953303,83.5985
1275932013303,83.1871
1275932073303,83.7195
1275932133303,83.4336
1275932193303,83.8535
1275932253303,84.0196
1275932313303,83.7350
1275932373303,83.7959
1275932433303,83.4087
1275932493303,83.4973
1275932553303,83.4327
1275932613303,83.8287
1275932673303,83.6833
1275932733303,83.3864
1275932793303,83.0060
1275932853303,83.3684
1275932913303,83.4060
1275932973303,83.9311
1275933033303,83.4050
1275933093303,83.5966
1275933153303,83.5949
1275933213303,83.1742
1275933273303,83.9906
1275933333303,83.5941
1275933393303,83.3077
1275933453303,83.7027
1275933513303,83.4916
1275933573303,83.6035
1275933633312,84.1329
1275933693312,83.7587
1275933753312,83.7495
1275933813312,83.8801
1275933873312,84.2917
1275933933312,83.3979
1275933993312,83.4840
1275934053312,83.5193
1275934113312,83.6079
1275934173312,83.0715
1275934233312,83.6988
1275934293312,83.1607
1275934353312,83.5969
1275934413312,83.9221
1275934473312,83.0632
1275934533312,83.3552
1275934593312,83.3681
1275934653312,83.3905
1275934713312,83.7608